Regional Weather Roundup
Issued by NWS

Home | Current Version | Previous Version | Graphics & Text | Print | Product List | Glossary On
Versions: 1 2 3 4 5 6 7 8 9 10 11 12 13 14 15 16 17 18 19 20 21 22 23 24 25 26 27 28 29 30 31 32 33 34 35 36 37 38 39 40 41 42 43 44 45 46 47 48 49 50
000
ASUS43 KOAX 182102
RWRNE

WEATHER ROUNDUP FOR NEBRASKA
NATIONAL WEATHER SERVICE OMAHA NE
300 PM CST WED JAN 18 2017

NOTES: SATELLITE DATA IS BEING USED TO AUGMENT CLOUD COVER ABOVE
       12000 FEET.
       "FAIR" INDICATES FEW OR NO CLOUDS BELOW 12,000 FEET WITH NO
       SIGNIFICANT WEATHER AND/OR OBSTRUCTIONS TO VISIBILITY.

  * THESE STATIONS DO NOT REPORT WEATHER SUCH AS RAIN...SNOW OR FOG.

NEZ001>004-019>022-054>056-182200-
NEBRASKA PANHANDLE

CITY           SKY/WX    TMP DP  RH WIND       PRES   REMARKS
SCOTTSBLUFF    CLOUDY    50  25  37 SE7       29.76F
ALLIANCE       CLOUDY    52  22  30 W10       29.73F
CHADRON        CLOUDY    38  26  62 SW7       29.74F WCI  33
KIMBALL        SUNNY     51  33  49 S5        29.78F
SIDNEY         CLOUDY    47  24  40 SW10      29.77F
$$

NEZ057>060-069>072-079>082-182200-
SOUTHWEST NEBRASKA

CITY           SKY/WX    TMP DP  RH WIND       PRES   REMARKS
NORTH PLATTE   SUNNY     50  32  50 S10       29.80F
IMPERIAL       CLOUDY    46  29  51 SW6       29.80F
LEXINGTON      CLOUDY    44  37  75 S16       29.83F
MCCOOK         CLOUDY    48  37  65 S12       29.83F
OGALLALA       SUNNY     48  29  48 W6        29.79F
$$

NEZ005>010-023>029-035>040-094-182200-
NORTH CENTRAL NEBRASKA

CITY           SKY/WX    TMP DP  RH WIND       PRES   REMARKS
VALENTINE      SUNNY     59  18  20 W6        29.72F
AINSWORTH      SUNNY     55  25  31 S9        29.74F
BROKEN BOW     SUNNY     47  36  65 S13       29.80F
O`NEILL        SUNNY     54  35  48 S13       29.78F
ORD            SUNNY     46  37  71 S13       29.81F
THEDFORD       SUNNY     57  25  29 S9        29.77F
$$

NEZ041-046>049-061>064-073>077-083>087-182200-
SOUTH CENTRAL NEBRASKA

CITY           SKY/WX    TMP DP  RH WIND       PRES   REMARKS
GRAND ISLAND   CLOUDY    48  41  76 S21G26    29.85F
AURORA         CLOUDY    48  41  77 S15       29.86F
HASTINGS       SUNNY     47  38  71 SW13G22   29.88F
HEBRON         SUNNY     49  40  71 S13       29.93S
HOLDREGE       SUNNY     46  38  73 S15G22    29.86F
KEARNEY *      CLOUDY    46  37  71 S21       29.85F
YORK           SUNNY     46  41  81 S16       29.87F
$$

NEZ011>018-030>034-042>045-182200-
NORTHEAST NEBRASKA

CITY           SKY/WX    TMP DP  RH WIND       PRES   REMARKS
NORFOLK        SUNNY     48  40  73 S9        29.83F
ALBION         SUNNY     46  39  74 S5        29.82F
BLAIR          SUNNY     52  41  67 S20       29.89F
FREMONT        SUNNY     51  40  65 S13       29.89S
TEKAMAH        SUNNY     49  40  71 S14       29.89F
WAYNE          SUNNY     49  42  76 SW9       29.84S
$$

NEZ050>053-065>068-078-088>093-182200-
SOUTHEAST NEBRASKA

CITY           SKY/WX    TMP DP  RH WIND       PRES   REMARKS
LINCOLN        SUNNY     51  40  65 S16       29.92F
OMAHA EPPLEY   MOSUNNY   49  39  68 S14       29.91F
BEATRICE       SUNNY     50  39  65 S10       29.95S
FALLS CITY     SUNNY     52  38  58 S10       29.98F
NEBRASKA CITY  SUNNY     50  35  56 S15       29.95F
PLATTSMOUTH    SUNNY     50  38  64 S15       29.92F
$$

NEZ044-045-051>053-067-182200-
OMAHA AREA

CITY           SKY/WX    TMP DP  RH WIND       PRES   REMARKS
OMAHA EPPLEY   MOSUNNY   49  39  68 S14       29.91F
BLAIR          SUNNY     52  41  67 S20       29.89F
FREMONT        SUNNY     51  40  65 S13       29.89S
MILLARD        SUNNY     54  41  62 S9        29.91F
OFFUTT AFB     SUNNY     49  44  81 S10       29.92F
PLATTSMOUTH    SUNNY     50  38  64 S15       29.92F
WAHOO          FAIR      50  39  66 S15       29.89F
$$




USA.gov is the U.S. government's official web portal to all federal, state and local government web resources and services.